Burnsville, North Carolina, United States (28714)
Lat: 35.92N, Lon: 82.3W
Wx Zone: NCZ049
Local Info
Past Weather Observations for Tuesday, December 16, 2014

NOTE: This archive is for the closest National Weather Service station to Burnsville. Information may differ from the station used for current weather conditions.

Click here for Long-term Archive

Time Weather Temperature Dewpoint Humidity Pressure Winds Precip Visibility
23:54
Overcast
43°F / 6°C 36°F / 2°C 76% 30.06 in
(1018 mb)
N 12.7 mph
(N 20 kph)
- 10SM
22:54
Partly Cloudy
43°F / 6°C 36°F / 2°C 76% 30.06 in
(1018 mb)
N 12.7 mph
(N 20 kph)
- 10SM
21:54
Overcast
45°F / 7°C 36°F / 2°C 71% 30.06 in
(1018 mb)
N 13.8 mph
(N 22 kph)
- 10SM
20:54
Mostly Cloudy
46°F / 8°C 34°F / 1°C 62% 30.06 in
(1018 mb)
NNW 23 mph
(NNW 37 kph)
- 10SM
19:54
Clear
46°F / 8°C 34°F / 1°C 62% 30.04 in
(1017 mb)
NNW 19.6 mph
(NNW 32 kph)
- 10SM
18:54
Clear
46°F / 8°C 34°F / 1°C 62% 30.04 in
(1017 mb)
NNW 15 mph
(NNW 24 kph)
- 10SM
17:54
Clear
46°F / 8°C 34°F / 1°C 62% 30.01 in
(1016 mb)
N 13.8 mph
(N 22 kph)
- 10SM
16:54
Mostly Cloudy
50°F / 10°C 36°F / 2°C 58% 29.98 in
(1015 mb)
N 11.5 mph
(N 19 kph)
- 10SM
15:54
Clear
52°F / 11°C 37°F / 3°C 58% 29.92 in
(1013 mb)
N 20.7 mph
(N 33 kph)
- 10SM
14:54
Clear
54°F / 12°C 43°F / 6°C 67% 29.89 in
(1012 mb)
N 20.7 mph
(N 33 kph)
- 10SM
13:54
Clear
59°F / 15°C 43°F / 6°C 55% 29.86 in
(1011 mb)
N 17.3 mph
(N 28 kph)
- 10SM
12:54
Clear
63°F / 17°C 41°F / 5°C 45% 29.86 in
(1011 mb)
SW 4.6 mph
(SW 7 kph)
- 10SM
11:54
Clear
59°F / 15°C 45°F / 7°C 59% 29.89 in
(1012 mb)
SW 3.5 mph
(SW 6 kph)
- 10SM
10:54
Clear
55°F / 13°C 46°F / 8°C 72% 29.92 in
(1013 mb)
SW 4.6 mph
(SW 7 kph)
- 10SM
09:54
Partly Cloudy
52°F / 11°C 46°F / 8°C 82% 29.95 in
(1014 mb)
SW 3.5 mph
(SW 6 kph)
- 10SM
09:44
Partly Cloudy
52°F / 11°C 46°F / 8°C 82% 29.95 in
(1014 mb)
S 6.9 mph
(S 11 kph)
- 10SM
09:05
Mostly Cloudy
Fog And Mist
46°F / 8°C 45°F / 7°C 93% 29.95 in
(1014 mb)
Variable 5.8 mph
(Variable 9 kph)
- 1SM
08:54
Mostly Cloudy
Fog And Mist
46°F / 8°C 45°F / 7°C 93% 29.95 in
(1014 mb)
Variable 6.9 mph
(Variable 11 kph)
- 6SM
08:35
Mostly Cloudy
Fog And Mist
46°F / 8°C 45°F / 7°C 93% 29.95 in
(1014 mb)
SSE 5.8 mph
(SSE 9 kph)
- 6SM
08:34
Mostly Cloudy
Fog And Mist
46°F / 8°C 45°F / 7°C 93% 29.95 in
(1014 mb)
SSE 5.8 mph
(SSE 9 kph)
- 6SM
08:10
Mostly Cloudy
Fog And Mist
46°F / 8°C 45°F / 7°C 93% 29.95 in
(1014 mb)
Calm - 4SM
07:54
Mostly Cloudy
Fog And Mist
45°F / 7°C 43°F / 6°C 93% 29.95 in
(1014 mb)
SSE 3.5 mph
(SSE 6 kph)
0.00 in
(0.00 mm)
5SM
07:10
Overcast
46°F / 8°C 43°F / 6°C 87% 29.95 in
(1014 mb)
Calm 0.00 in
(0.00 mm)
10SM
06:54
Overcast
Light Rain
46°F / 8°C 43°F / 6°C 87% 29.95 in
(1014 mb)
Calm 0.01 in
(0.25 mm)
10SM
05:54
Overcast
46°F / 8°C 43°F / 6°C 87% 29.95 in
(1014 mb)
SSE 6.9 mph
(SSE 11 kph)
- 10SM
05:33
Overcast
46°F / 8°C 43°F / 6°C 87% 29.95 in
(1014 mb)
SSE 4.6 mph
(SSE 7 kph)
- 10SM
04:54
Overcast
46°F / 8°C 39°F / 4°C 76% 29.95 in
(1014 mb)
SSE 9.2 mph
(SSE 15 kph)
0.00 in
(0.00 mm)
10SM
04:27
Overcast
46°F / 8°C 39°F / 4°C 76% 29.98 in
(1015 mb)
SE 5.8 mph
(SE 9 kph)
- 10SM
03:54
Overcast
46°F / 8°C 39°F / 4°C 76% 30.01 in
(1016 mb)
S 11.5 mph
(S 19 kph)
0.00 in
(0.00 mm)
10SM
02:54
Overcast
46°F / 8°C 36°F / 2°C 66% 30.01 in
(1016 mb)
SSE 8.1 mph
(SSE 13 kph)
- 10SM
01:54
Overcast
46°F / 8°C 36°F / 2°C 66% 30.01 in
(1016 mb)
S 10.4 mph
(S 17 kph)
- 10SM
00:54
Overcast
43°F / 6°C 34°F / 1°C 71% 30.04 in
(1017 mb)
SE 5.8 mph
(SE 9 kph)
- 10SM
00:52
Overcast
43°F / 6°C 34°F / 1°C 71% 30.04 in
(1017 mb)
SE 5.8 mph
(SE 9 kph)
- 10SM
Time Weather Temperature Dewpoint Humidity Pressure Winds Precip Visibility


Weather for websites

WeatherForYou.com, LLC is not responsible for any damages or problems caused by this service. Current weather conditions are obtained from the closest station including government and personal stations which may have varying degrees of accuracy. Weather forecasts are derived from the NOAA NDFD. Like all things, this site belongs to Jesus Christ... He just trusts me to maintain it. If you have any questions or comments email webmaster@weatherforyou.com

Copyright © 2014, WeatherForYou.com LLC. All rights reserved.